Location: Newark
(45.8667°N, 9.7333°E)
Time: 02:09:10
(UTC+00:00)

A-11 Canister half - Pass Details

Date: 27 January 2020
Orbit: 1517 x 1683 km, 47.2° (Epoch: 19 February)

Event Time Altitude Azimuth Distance (km) Brightness Sun altitude
Rises 19:32:51 0° 172° (S) 4,784 11.5 -33.7°
Enters shadow 19:33:27 - 170° (S) 4,651 11.4 -33.8°
Reaches altitude 10° 19:38:22 10° 148° (SSE) 3,765 - -34.7°
Maximum altitude 19:42:07 13° 124° (ESE) 3,509 - -35.3°
Drops below altitude 10° 19:45:50 10° 100° (E) 3,725 - -35.9°
Sets 19:51:10 0° 75° (ENE) 4,687 - -36.8°
